N2LQH Weather Reports


Display with metric or nautical units.
time (UTC)temp
F
wind
direction
speed
MPH
gust
MPH
rain 1hr
in
rain 24hr
in
rain mn
in
humidity
%
barometer
mb
20260506231054 69 227 3.0 10.0 0.00 0.00 0.00 75 1009.1
20260506230555 70 230 6.0 10.0 0.00 0.00 0.00 75 1009.1
20260506230104 70 246 5.0 10.0 0.00 0.00 0.00 75 1008.9
20260506225555 70 200 4.0 14.0 0.00 0.00 0.00 74 1009.0
20260506225055 70 252 5.0 14.0 0.00 0.00 0.00 74 1008.9
20260506224554 70 263 6.0 14.0 0.00 0.00 0.00 74 1008.9
20260506224055 70 244 2.0 5.0 0.00 0.00 0.00 75 1008.9
20260506223552 70 0 2.0 10.0 0.00 0.00 0.00 74 1008.8
20260506223057 70 239 2.0 13.0 0.00 0.00 0.00 74 1008.8
20260506222555 70 215 4.0 13.0 0.00 0.00 0.00 74 1008.8
20260506222055 70 249 6.0 15.0 0.00 0.00 0.00 74 1008.9
20260506221555 70 253 5.0 15.0 0.00 0.00 0.00 74 1009.0
20260506221052 70 248 7.0 16.0 0.00 0.00 0.00 73 1008.9
20260506220553 71 246 6.0 16.0 0.00 0.00 0.00 73 1008.9
20260506220100 71 306 6.0 17.0 0.00 0.00 0.00 72 1008.8
20260506215554 71 218 8.0 17.0 0.00 0.00 0.00 72 1008.8
20260506215052 71 246 7.0 15.0 0.00 0.00 0.00 72 1008.8
20260506214558 71 264 5.0 15.0 0.00 0.00 0.00 72 1008.8
20260506214051 71 244 8.0 16.0 0.00 0.00 0.00 72 1008.7
20260506213553 71 210 7.0 17.0 0.00 0.00 0.00 71 1008.5
20260506213053 71 217 6.0 17.0 0.00 0.00 0.00 72 1008.6
20260506212553 70 223 5.0 18.0 0.00 0.00 0.00 74 1008.5
20260506212053 70 254 10.0 18.0 0.00 0.00 0.00 73 1008.5
20260506211553 70 200 9.0 16.0 0.00 0.00 0.00 74 1008.5
20260506211053 70 233 6.0 15.0 0.00 0.00 0.00 74 1008.5
20260506210552 69 229 7.0 16.0 0.00 0.00 0.00 74 1008.5
20260506210057 69 265 7.0 17.0 0.00 0.00 0.00 74 1008.5
20260506205552 69 245 10.0 17.0 0.00 0.00 0.00 74 1008.3
20260506205052 69 193 11.0 17.0 0.00 0.00 0.00 74 1008.3
20260506204556 69 233 7.0 16.0 0.00 0.00 0.00 74 1008.3
20260506204053 69 240 9.0 15.0 0.00 0.00 0.00 74 1008.2
20260506203553 69 216 7.0 19.0 0.00 0.00 0.00 74 1008.2
20260506203055 69 251 8.0 20.0 0.00 0.00 0.00 74 1008.3
20260506202553 69 201 11.0 20.0 0.00 0.00 0.00 74 1008.4
20260506202050 69 248 10.0 19.0 0.00 0.00 0.00 74 1008.3
20260506201600 69 271 9.0 18.0 0.00 0.00 0.00 74 1008.4
20260506201050 69 211 8.0 18.0 0.00 0.00 0.00 75 1008.4
20260506200554 68 271 10.0 19.0 0.00 0.00 0.00 76 1008.6
20260506200054 68 234 10.0 19.0 0.00 0.00 0.00 77 1008.6
20260506195553 68 174 11.0 19.0 0.00 0.00 0.00 77 1008.8
20260506195053 67 240 9.0 18.0 0.00 0.00 0.00 77 1009.0
20260506194601 67 250 6.0 18.0 0.00 0.00 0.00 78 1008.9
20260506194053 67 257 11.0 18.0 0.00 0.00 0.00 77 1009.0
20260506193558 67 218 9.0 20.0 0.00 0.00 0.00 78 1009.2
20260506193108 67 228 6.0 24.0 0.00 0.00 0.00 78 1009.1
20260506192553 67 211 13.0 24.0 0.00 0.00 0.00 78 1008.9
20260506192053 67 288 7.0 16.0 0.00 0.00 0.00 78 1009.1
20260506191609 67 224 7.0 19.0 0.00 0.00 0.00 78 1009.2
20260506191054 67 208 7.0 19.0 0.00 0.00 0.00 78 1009.4
20260506190549 66 238 9.0 18.0 0.00 0.00 0.00 78 1009.2
20260506190055 66 266 7.0 16.0 0.00 0.00 0.00 79 1009.3
20260506185550 66 199 7.0 19.0 0.00 0.00 0.00 78 1009.4
20260506185053 66 208 10.0 19.0 0.00 0.00 0.00 78 1009.2
20260506184555 66 244 8.0 19.0 0.00 0.00 0.00 78 1009.5
20260506184050 67 232 8.0 17.0 0.00 0.00 0.00 78 1009.5
20260506183555 66 210 9.0 29.0 0.00 0.00 0.00 78 1009.6
20260506183054 66 230 11.0 29.0 0.00 0.00 0.00 77 1009.6
20260506182552 67 232 12.0 21.0 0.00 0.00 0.00 77 1009.6
20260506182052 67 181 10.0 22.0 0.00 0.00 0.00 76 1009.6
20260506181555 67 186 8.0 22.0 0.00 0.00 0.00 76 1009.8
20260506181053 67 202 5.0 18.0 0.00 0.00 0.00 76 1009.7
20260506180552 67 180 8.0 20.0 0.00 0.00 0.00 75 1009.7
20260506180058 67 225 9.0 22.0 0.00 0.00 0.00 75 1009.8
20260506175552 67 203 11.0 31.0 0.00 0.00 0.00 74 1009.9
20260506175052 68 186 10.0 31.0 0.00 0.00 0.00 73 1010.1
20260506174555 68 190 15.0 31.0 0.00 0.00 0.00 71 1009.9
20260506174052 69 198 11.0 23.0 0.00 0.00 0.00 71 1009.9
20260506173550 69 219 11.0 24.0 0.00 0.00 0.00 70 1010.0
20260506173124 69 173 7.0 24.0 0.00 0.00 0.00 70 1010.0
20260506172551 70 220 8.0 23.0 0.00 0.00 0.00 69 1010.1
20260506172055 70 205 9.0 25.0 0.00 0.00 0.00 68 1010.0
20260506171601 70 186 12.0 25.0 0.00 0.00 0.00 67 1009.9
20260506171053 70 221 7.0 17.0 0.00 0.00 0.00 70 1009.9
20260506170552 70 244 7.0 14.0 0.00 0.00 0.00 71 1010.0
20260506170053 70 203 7.0 20.0 0.00 0.00 0.00 71 1010.0
20260506165552 70 163 10.0 20.0 0.00 0.00 0.00 72 1010.2
20260506165053 70 261 9.0 18.0 0.00 0.00 0.00 72 1010.2
20260506164601 70 209 6.0 20.0 0.00 0.00 0.00 72 1010.4
20260506164053 70 203 8.0 20.0 0.00 0.00 0.00 68 1010.6
20260506163552 70 229 7.0 18.0 0.00 0.00 0.00 67 1010.6
20260506163105 71 211 10.0 20.0 0.00 0.00 0.00 67 1010.7
20260506162552 71 176 10.0 20.0 0.00 0.00 0.00 66 1010.9
20260506162053 71 214 11.0 20.0 0.00 0.00 0.00 66 1011.1
20260506161624 70 184 9.0 20.0 0.00 0.00 0.00 66 1011.2
20260506161052 70 283 11.0 19.0 0.00 0.00 0.00 66 1011.4
20260506160550 70 186 9.0 19.0 0.00 0.00 0.00 66 1011.1
20260506160056 70 228 10.0 23.0 0.00 0.00 0.00 66 1011.3
20260506155550 70 207 9.0 23.0 0.00 0.00 0.00 66 1011.2
20260506155151 70 220 12.0 23.0 0.00 0.00 0.00 65 1011.2
20260506154600 70 247 11.0 25.0 0.00 0.00 0.00 65 1011.2
20260506154053 70 184 8.0 25.0 0.00 0.00 0.00 65 1011.2
20260506153554 70 206 11.0 21.0 0.00 0.00 0.00 65 1011.3
20260506153058 70 229 8.0 21.0 0.00 0.00 0.00 64 1011.3
20260506152552 70 180 7.0 16.0 0.00 0.00 0.00 65 1011.3
20260506152053 70 223 6.0 13.0 0.00 0.00 0.00 65 1011.4
20260506151554 71 211 8.0 13.0 0.00 0.00 0.00 64 1011.2
20260506151053 71 252 7.0 15.0 0.00 0.00 0.00 64 1011.2
20260506150554 70 178 7.0 17.0 0.00 0.00 0.00 65 1011.2
20260506150056 70 200 9.0 17.0 0.00 0.00 0.00 65 1011.2
20260506145554 69 240 7.0 18.0 0.00 0.00 0.00 66 1011.1
20260506145052 69 190 8.0 19.0 0.00 0.00 0.00 65 1011.1
20260506144554 69 222 10.0 19.0 0.00 0.00 0.00 65 1011.2
20260506144053 69 207 9.0 15.0 0.00 0.00 0.00 65 1011.2
20260506143554 69 232 8.0 19.0 0.00 0.00 0.00 65 1011.2
20260506143056 70 200 8.0 20.0 0.00 0.00 0.00 64 1011.3
20260506142553 70 172 10.0 20.0 0.00 0.00 0.00 64 1011.2
20260506142057 70 218 10.0 22.0 0.00 0.00 0.00 64 1011.3
20260506141556 70 222 10.0 22.0 0.00 0.00 0.00 64 1011.3
20260506141053 70 213 9.0 20.0 0.00 0.00 0.00 65 1011.2
20260506140554 70 222 7.0 20.0 0.00 0.00 0.00 65 1011.2
20260506140053 69 226 10.0 17.0 0.00 0.00 0.00 65 1011.2
20260506135553 69 189 7.0 25.0 0.00 0.00 0.00 65 1011.2
20260506135053 70 208 11.0 25.0 0.00 0.00 0.00 64 1011.4
20260506134553 70 211 9.0 24.0 0.00 0.00 0.00 64 1011.2
20260506134054 70 203 8.0 24.0 0.00 0.00 0.00 63 1011.3
20260506133554 70 211 9.0 22.0 0.00 0.00 0.00 63 1011.1
20260506133057 71 229 12.0 21.0 0.00 0.00 0.00 63 1011.4
20260506132554 71 178 8.0 21.0 0.00 0.00 0.00 64 1011.4
20260506132054 71 225 11.0 25.0 0.00 0.00 0.00 63 1011.5
20260506131601 71 225 11.0 25.0 0.00 0.00 0.00 63 1011.5
20260506131054 71 223 8.0 24.0 0.00 0.00 0.00 64 1011.7
20260506130554 71 178 12.0 24.0 0.00 0.00 0.00 65 1011.6
20260506130117 70 150 12.0 22.0 0.00 0.00 0.00 65 1011.8
20260506125553 70 246 8.0 25.0 0.00 0.00 0.00 65 1011.9
20260506125053 69 182 10.0 25.0 0.00 0.00 0.00 66 1011.7
20260506124600 69 188 10.0 23.0 0.00 0.00 0.00 66 1011.8
20260506124053 69 201 10.0 21.0 0.00 0.00 0.00 66 1011.8
20260506123553 69 215 8.0 25.0 0.00 0.00 0.00 68 1011.8
20260506123054 69 222 10.0 25.0 0.00 0.00 0.00 68 1011.9
20260506122554 68 180 8.0 21.0 0.00 0.00 0.00 70 1011.7
20260506122053 67 215 8.0 25.0 0.00 0.00 0.00 71 1011.6
20260506121553 67 215 9.0 25.0 0.00 0.00 0.00 71 1011.7
20260506121052 66 200 8.0 24.0 0.00 0.00 0.00 71 1011.7
20260506120552 67 244 11.0 24.0 0.00 0.00 0.00 72 1011.7
20260506120105 66 244 7.0 17.0 0.00 0.00 0.00 73 1011.7
20260506115553 66 207 8.0 17.0 0.00 0.00 0.00 74 1011.7
20260506115051 65 188 7.0 18.0 0.00 0.00 0.00 75 1011.8
20260506114553 65 207 10.0 18.0 0.00 0.00 0.00 74 1011.7
20260506114055 65 201 9.0 18.0 0.00 0.00 0.00 75 1011.7
20260506113555 65 182 8.0 17.0 0.00 0.00 0.00 75 1011.6
20260506113058 65 197 11.0 17.0 0.00 0.00 0.00 76 1011.6
20260506112555 64 202 7.0 16.0 0.00 0.00 0.00 76 1011.8
20260506112055 64 217 7.0 16.0 0.00 0.00 0.00 77 1011.8
20260506111554 64 166 7.0 16.0 0.00 0.00 0.00 77 1012.0
20260506111054 63 211 6.0 15.0 0.00 0.00 0.00 78 1011.8
20260506110552 63 179 8.0 16.0 0.00 0.00 0.00 78 1011.8
20260506105552 63 194 9.0 16.0 0.00 0.00 0.00 79 1011.7
20260506105051 63 171 7.0 13.0 0.00 0.00 0.00 79 1011.9
20260506104556 62 180 6.0 14.0 0.00 0.00 0.00 80 1011.8
20260506104052 62 183 5.0 14.0 0.00 0.00 0.00 80 1011.8
20260506103552 62 176 7.0 19.0 0.00 0.00 0.00 80 1011.8
20260506103058 62 218 10.0 19.0 0.00 0.00 0.00 80 1011.8
20260506102554 62 190 6.0 17.0 0.00 0.00 0.00 80 1011.8
20260506102054 62 228 7.0 17.0 0.00 0.00 0.00 80 1011.7
20260506101608 62 180 6.0 12.0 0.00 0.00 0.00 80 1011.7
20260506101053 62 165 6.0 12.0 0.00 0.00 0.00 81 1011.5
20260506100553 62 211 7.0 14.0 0.00 0.00 0.00 81 1011.4
20260506100114 62 196 7.0 14.0 0.00 0.00 0.00 81 1011.5
20260506095558 62 230 7.0 13.0 0.00 0.00 0.00 81 1011.5
20260506095054 62 194 5.0 14.0 0.00 0.00 0.00 81 1011.4
20260506094555 62 210 7.0 14.0 0.00 0.00 0.00 81 1011.3
20260506094053 62 189 6.0 12.0 0.00 0.00 0.00 81 1011.4
20260506093553 62 175 7.0 14.0 0.00 0.00 0.00 81 1011.4
20260506093057 62 184 7.0 14.0 0.00 0.00 0.00 81 1011.4
20260506092553 62 197 5.0 13.0 0.00 0.00 0.00 81 1011.4
20260506092108 62 207 5.0 12.0 0.00 0.00 0.00 81 1011.5
20260506091554 63 186 5.0 13.0 0.00 0.00 0.00 81 1011.5
20260506091053 63 188 6.0 13.0 0.00 0.00 0.00 81 1011.7
20260506090553 63 220 5.0 14.0 0.00 0.00 0.00 81 1011.7
20260506090055 63 200 7.0 16.0 0.00 0.00 0.00 81 1011.7
20260506085553 63 183 7.0 16.0 0.00 0.00 0.00 81 1011.7
20260506085054 63 175 6.0 14.0 0.00 0.00 0.00 81 1011.6
20260506084619 63 192 7.0 13.0 0.00 0.00 0.00 81 1011.7
20260506084054 63 186 7.0 17.0 0.00 0.00 0.00 81 1011.7
20260506083554 63 218 5.0 17.0 0.00 0.00 0.00 80 1011.8
20260506083054 63 200 7.0 15.0 0.00 0.00 0.00 80 1011.8
20260506082553 63 194 8.0 16.0 0.00 0.00 0.00 80 1011.9
20260506082053 63 216 7.0 16.0 0.00 0.00 0.00 80 1011.7
20260506081557 63 209 7.0 15.0 0.00 0.00 0.00 80 1011.8
20260506081052 63 207 6.0 17.0 0.00 0.00 0.00 80 1011.7
20260506080555 63 191 7.0 17.0 0.00 0.00 0.00 80 1011.8
20260506073055 64 195 7.0 17.0 0.00 0.00 0.00 80 1011.8
20260506072553 64 178 6.0 12.0 0.00 0.00 0.00 80 1011.8
20260506072052 64 187 4.0 13.0 0.00 0.00 0.00 79 1011.9
20260506071600 64 156 7.0 13.0 0.00 0.00 0.00 79 1012.0
20260506071055 64 230 5.0 12.0 0.00 0.00 0.00 79 1012.0
20260506070555 64 178 5.0 12.0 0.00 0.00 0.00 79 1012.1
20260506062056 65 173 7.0 13.0 0.00 0.00 0.00 78 1012.1
20260506061600 65 182 7.0 16.0 0.00 0.00 0.00 77 1012.1
20260506061415 65 225 7.0 16.0 0.00 0.00 0.00 77 1012.1
20260506060552 65 192 7.0 14.0 0.00 0.00 0.00 77 1012.2
20260506051055 66 234 6.0 13.0 0.00 0.00 0.00 75 1012.4
20260506050553 66 207 6.0 13.0 0.00 0.00 0.00 75 1012.4
20260506045052 66 229 6.0 17.0 0.00 0.00 0.00 74 1012.4
20260506044700 66 207 7.0 17.0 0.00 0.00 0.00 74 1012.5
20260506044055 66 225 5.0 17.0 0.00 0.00 0.00 74 1012.5
20260506043556 67 189 6.0 17.0 0.00 0.00 0.00 74 1012.5
20260506043057 67 200 6.0 16.0 0.00 0.00 0.00 73 1012.5
20260506042553 67 194 6.0 16.0 0.00 0.00 0.00 73 1012.5
20260506042054 67 186 7.0 16.0 0.00 0.00 0.00 73 1012.5
20260506041602 67 238 6.0 15.0 0.00 0.00 0.00 73 1012.4
20260506041052 67 216 7.0 17.0 0.00 0.00 0.00 73 1012.4
20260506040559 67 193 8.0 17.0 0.00 0.00 0.00 73 1012.4
20260506040057 67 229 8.0 16.0 0.00 0.00 0.00 73 1012.5
20260506035552 67 169 9.0 17.0 0.00 0.00 0.00 73 1012.3
20260506035055 66 180 7.0 19.0 0.00 0.00 0.00 73 1012.4
20260506034624 66 218 9.0 19.0 0.00 0.00 0.00 73 1012.4
20260506034052 66 218 8.0 16.0 0.00 0.00 0.00 74 1012.5
20260506033552 66 221 5.0 16.0 0.00 0.00 0.00 74 1012.5
20260506033058 65 216 6.0 15.0 0.00 0.00 0.00 74 1012.6
20260506032553 65 190 5.0 13.0 0.00 0.00 0.00 74 1012.6
20260506032053 65 209 6.0 10.0 0.00 0.00 0.00 74 1012.6
20260506031553 65 193 3.0 9.0 0.00 0.00 0.00 74 1012.6
20260506031056 65 176 4.0 10.0 0.00 0.00 0.00 74 1012.6
20260506030553 65 191 5.0 10.0 0.00 0.00 0.00 73 1012.8
20260506030053 65 165 3.0 9.0 0.00 0.00 0.00 73 1012.7
20260506025553 65 163 4.0 9.0 0.00 0.00 0.00 73 1012.7
20260506025054 65 187 4.0 8.0 0.00 0.00 0.00 72 1012.8
20260506024556 65 173 4.0 9.0 0.00 0.00 0.00 72 1012.8
20260506024055 66 187 5.0 9.0 0.00 0.00 0.00 72 1012.7
20260506023552 66 184 4.0 9.0 0.00 0.00 0.00 71 1012.7
20260506023110 66 172 5.0 10.0 0.00 0.00 0.00 71 1012.7
20260506022553 66 192 4.0 11.0 0.00 0.00 0.00 70 1012.8
20260506022053 66 173 4.0 12.0 0.00 0.00 0.00 70 1012.8
20260506021554 66 163 5.0 12.0 0.00 0.00 0.00 69 1012.8
20260506021053 67 195 6.0 13.0 0.00 0.00 0.00 69 1012.9
20260506020552 67 172 6.0 13.0 0.00 0.00 0.00 68 1012.8
20260506020052 67 155 6.0 13.0 0.00 0.00 0.00 68 1012.8
20260506015553 67 179 5.0 13.0 0.00 0.00 0.00 67 1012.8
20260506015053 67 173 5.0 12.0 0.00 0.00 0.00 67 1012.8
20260506014553 67 230 5.0 14.0 0.00 0.00 0.00 66 1012.7
20260506014053 67 169 6.0 14.0 0.00 0.00 0.00 66 1012.7
20260506013551 68 156 7.0 13.0 0.00 0.00 0.00 65 1012.7
20260506013055 68 148 6.0 13.0 0.00 0.00 0.00 65 1012.7
20260506012552 68 173 6.0 18.0 0.00 0.00 0.00 64 1012.5
20260506012053 68 163 6.0 18.0 0.00 0.00 0.00 64 1012.5
20260506011614 68 201 7.0 14.0 0.00 0.00 0.00 63 1012.5
20260506011052 68 157 6.0 15.0 0.00 0.00 0.00 63 1012.4
20260506010555 69 166 7.0 15.0 0.00 0.00 0.00 62 1012.4
20260506005555 69 190 7.0 13.0 0.00 0.00 0.00 62 1012.3
20260506005054 69 209 6.0 14.0 0.00 0.00 0.00 61 1012.2
20260506004624 69 167 7.0 14.0 0.00 0.00 0.00 61 1012.0
20260506004055 69 158 6.0 13.0 0.00 0.00 0.00 61 1011.9
20260506003553 70 152 5.0 12.0 0.00 0.00 0.00 61 1011.8
20260506003109 70 163 5.0 12.0 0.00 0.00 0.00 61 1011.8
20260506002551 70 201 6.0 10.0 0.00 0.00 0.00 60 1011.7
20260506002054 70 189 4.0 9.0 0.00 0.00 0.00 60 1011.8
20260506001558 71 187 5.0 11.0 0.00 0.00 0.00 59 1011.7
20260506001053 71 179 4.0 11.0 0.00 0.00 0.00 59 1011.7
20260506000553 71 188 5.0 11.0 0.00 0.00 0.00 58 1011.8
20260506000053 72 177 4.0 11.0 0.00 0.00 0.00 57 1011.7
20260505235554 73 180 6.0 11.0 0.00 0.00 0.00 56 1011.6
20260505235052 73 192 7.0 15.0 0.00 0.00 0.00 56 1011.6
20260505234620 73 183 5.0 15.0 0.00 0.00 0.00 55 1011.6
20260505234053 74 220 8.0 19.0 0.00 0.00 0.00 54 1011.6
20260505233551 74 182 10.0 19.0 0.00 0.00 0.00 53 1011.5
20260505233102 74 214 7.0 21.0 0.00 0.00 0.00 52 1011.5
20260505232556 75 167 10.0 21.0 0.00 0.00 0.00 51 1011.5
20260505232052 75 203 8.0 18.0 0.00 0.00 0.00 50 1011.5
20260505231600 76 175 6.0 16.0 0.00 0.00 0.00 49 1011.3